Regional Weather Roundup
Issued by NWS Goodland, KS

Home | Current Version | Previous Version | Graphics & Text | Print | Product List | Glossary On
Versions: 1 2 3 4 5 6 7 8 9 10 11 12 13 14 15 16 17 18 19 20 21 22 23 24 25 26 27 28 29 30 31 32 33 34 35 36 37 38 39 40 41 42 43 44 45 46 47 48 49 50
000
ASUS43 KGLD 270708
RWRGLD

GOODLAND FORECAST AREA HOURLY WEATHER ROUNDUP
NATIONAL WEATHER SERVICE GOODLAND KS
100 AM MDT SAT AUG 27 2016

...OFFICIAL OBSERVATIONS...

CITY           SKY/WX    TMP DP  RH WIND       PRES   REMARKS
GOODLAND KS    CLEAR     51  50  96 CALM      30.07S FOG
HILL CITY KS   CLOUDY    59  58  96 CALM      30.06R
IMPERIAL NEB   MOCLDY    51  50  96 CALM      30.07S FOG
MCCOOK NEB     CLEAR     53  51  93 NW5       30.05F
AKRON CO       CLEAR     55  52  89 S9        30.09F
BURLINGTON CO  CLEAR     52  48  86 E5        30.09S
LIMON CO       CLOUDY    46  46 100 N3        30.14F
$$

...UNOFFICIAL OBSERVATIONS...

CITY           SKY/WX    TMP DP  RH WIND       PRES   REMARKS
LENORA KS        N/A     58  32  37 MISG        N/A
SHARON SPRINGS   N/A     58  55  91 NE7         N/A
TRIBUNE KS     CLEAR     61  59  94 E5        30.07F
TRENTON NEB      N/A     52  32  46 MISG        N/A
KIT CARSON CO    N/A     56  51  82 CALM        N/A
YUMA CO          N/A     51  49  94 CALM        N/A
$$




USA.gov is the U.S. government's official web portal to all federal, state and local government web resources and services.